Bartow, FL

6:18 AM EDT on June 24, 2017 (GMT -0400)
Bartow Municipal

Weather History for KBOW - September, 2013

Change the Weather History Date:

Friday, September 6, 2013

  Actual Average Record
Temperature  
Mean Temperature 81 °F -  
Max Temperature 91 °F 90 °F 98 °F (1944)
Min Temperature 71 °F 71 °F 68 °F (1934)
Cooling Degree Days 16    
Growing Degree Days 31 (Base 50)    
Moisture  
Dew Point 72 °F    
Average Humidity 90    
Maximum Humidity 100    
Minimum Humidity 49    
Precipitation  
Precipitation 0.07 in - - ()
Sea Level Pressure  
Sea Level Pressure 30.04 in    
Wind  
Wind Speed 2 mph (NE)    
Max Wind Speed 28 mph    
Max Gust Speed 37 mph    
Visibility 8 miles    
Events Rain , Thunderstorm    
Averages and records for this station are not official NWS values.
T = Trace of Precipitation, MM = Missing Value Source: NWS Daily Summary

Daily Weather History Graph

Daily Weather History Graph

Search for Another Location

Airport or City:

Trip Planner

Search our weather history database for the weather conditions in past years. The results will help you decide how hot, cold, wet, or windy it might be!

Date:

Astronomy

Sep. 06, 2013 Rise Set
Actual Time 7:08 AM EDT 7:42 PM EDT
Civil Twilight 6:44 AM EDT 8:05 PM EDT
Nautical Twilight 6:16 AM EDT 8:33 PM EDT
Astronomical Twilight 5:48 AM EDT 9:01 PM EDT
Moon 8:08 AM EDT (9/6) 8:18 PM EDT (9/6)
Length of Visible Light 13h 21m
Length of Day
12h 33m
New Moon, 1% of the Moon is Illuminated
Sep 6
New Moon
Sep 12
First Quarter
Sep 19
Full
Sep 26
Last Quarter
Oct 4
New

Hourly Weather History & Observations

Time (EDT) Temp. Heat Index Dew Point Humidity Pressure Visibility Wind Dir Wind Speed Gust Speed Precip Events Conditions
12:15 AM 75.2 °F - 73.4 °F 94% 30.07 in 9.0 mi Calm Calm - N/A   Clear
12:35 AM 73.4 °F - 73.4 °F 100% 30.07 in 10.0 mi Calm Calm - N/A   Clear
12:55 AM 75.2 °F - 71.6 °F 89% 30.06 in 10.0 mi Calm Calm - N/A   Clear
1:15 AM 73.4 °F - 73.4 °F 100% 30.06 in 9.0 mi Calm Calm - N/A   Clear
1:35 AM 73.4 °F - 73.4 °F 100% 30.06 in 9.0 mi Calm Calm - N/A   Clear
1:55 AM 73.4 °F - 73.4 °F 100% 30.06 in 9.0 mi Calm Calm - N/A   Clear
2:15 AM 73.4 °F - 73.4 °F 100% 30.06 in 9.0 mi Calm Calm - N/A   Clear
2:35 AM 73.4 °F - 73.4 °F 100% 30.05 in 10.0 mi Calm Calm - N/A   Clear
2:55 AM 73.4 °F - 73.4 °F 100% 30.05 in 10.0 mi Calm Calm - N/A   Clear
3:15 AM 73.4 °F - 73.4 °F 100% 30.05 in 9.0 mi Calm Calm - N/A   Clear
3:35 AM 73.4 °F - 73.4 °F 100% 30.05 in 9.0 mi Calm Calm - N/A   Clear
3:55 AM 73.4 °F - 73.4 °F 100% 30.05 in 9.0 mi Calm Calm - N/A   Clear
4:15 AM 73.4 °F - 73.4 °F 100% 30.04 in 9.0 mi Calm Calm - N/A   Clear
4:35 AM 73.4 °F - 73.4 °F 100% 30.04 in 10.0 mi Calm Calm - N/A   Clear
4:55 AM 73.4 °F - 73.4 °F 100% 30.04 in 8.0 mi Calm Calm - N/A   Clear
5:15 AM 73.4 °F - 73.4 °F 100% 30.05 in 9.0 mi Calm Calm - N/A   Clear
5:35 AM 73.4 °F - 73.4 °F 100% 30.05 in 9.0 mi NNW 3.5 mph - N/A   Clear
5:55 AM 73.4 °F - 73.4 °F 100% 30.06 in 10.0 mi North 5.8 mph - N/A   Partly Cloudy
6:15 AM 73.4 °F - 73.4 °F 100% 30.06 in 9.0 mi Calm Calm - N/A   Partly Cloudy
6:35 AM 73.4 °F - 73.4 °F 100% 30.05 in 9.0 mi Calm Calm - N/A   Clear
6:55 AM 73.4 °F - - N/A% 30.06 in 9.0 mi Calm Calm - N/A   Clear
7:15 AM 73.4 °F - - N/A% 30.06 in 7.0 mi Calm Calm - N/A   Clear
7:50 AM 73.4 °F - - N/A% 30.06 in 5.0 mi Calm Calm - N/A   Haze
8:50 AM 77.0 °F - 77.0 °F 100% 30.07 in 7.0 mi Calm Calm - N/A   Partly Cloudy
9:50 AM 82.4 °F 89.5 °F 75.2 °F 79% 30.08 in 9.0 mi Calm Calm - N/A   Scattered Clouds
11:50 AM 84.2 °F 89.6 °F 71.6 °F 66% 30.08 in 9.0 mi Calm Calm - N/A   Partly Cloudy
12:50 PM 87.8 °F 93.8 °F 71.6 °F 58% 30.06 in 9.0 mi ESE 4.6 mph - N/A   Scattered Clouds
1:50 PM 89.6 °F 96.2 °F 71.6 °F 55% 30.04 in 9.0 mi Variable 3.5 mph - N/A   Scattered Clouds
2:50 PM 89.6 °F 94.7 °F 69.8 °F 52% 30.00 in 9.0 mi East 4.6 mph - N/A   Scattered Clouds
3:35 PM 91.4 °F 96.8 °F 69.8 °F 49% 29.97 in - SW 5.8 mph - N/A   Clear
3:55 PM 89.6 °F 94.7 °F 69.8 °F 52% 29.96 in - SSE 4.6 mph - N/A Thunderstorm Thunderstorm
4:15 PM 91.4 °F 96.8 °F 69.8 °F 49% 29.97 in - ENE 4.6 mph - N/A Thunderstorm Thunderstorm
4:35 PM 91.4 °F 96.8 °F 69.8 °F 49% 29.98 in - NNE 8.1 mph - N/A Thunderstorm Thunderstorm
4:55 PM 78.8 °F - 69.8 °F 74% 30.01 in - NNE 27.6 mph 36.8 mph N/A Thunderstorm Thunderstorm
5:15 PM 73.4 °F - 71.6 °F 94% 30.00 in - NE 13.8 mph 25.3 mph 0.01 in Thunderstorm Unknown
5:35 PM 73.4 °F - 73.4 °F 100% 30.03 in 7.0 mi NNE 10.4 mph 20.7 mph 0.01 in Thunderstorm Mostly Cloudy
5:55 PM 73.4 °F - 69.8 °F 88% 30.03 in 7.0 mi NNE 10.4 mph - 0.01 in Thunderstorm Mostly Cloudy
6:15 PM 73.4 °F - 69.8 °F 88% 30.02 in 8.0 mi NE 5.8 mph - N/A Thunderstorm Mostly Cloudy
6:35 PM 73.4 °F - 69.8 °F 88% 30.02 in 9.0 mi ENE 6.9 mph - N/A Thunderstorm Partly Cloudy
6:55 PM 73.4 °F - 71.6 °F 94% 30.03 in 10.0 mi NE 4.6 mph - N/A   Mostly Cloudy
7:15 PM 73.4 °F - 71.6 °F 94% 30.04 in 4.0 mi Calm Calm - N/A Rain Light Rain
7:35 PM 73.4 °F - 73.4 °F 100% 30.04 in 2.5 mi Calm Calm - 0.04 in Rain Rain
7:55 PM 73.4 °F - 73.4 °F 100% 30.04 in 5.0 mi Calm Calm - 0.06 in Rain Light Rain
8:15 PM 73.4 °F - 73.4 °F 100% 30.05 in 9.0 mi West 4.6 mph - N/A   Partly Cloudy
8:35 PM 73.4 °F - 73.4 °F 100% 30.05 in 9.0 mi NNW 9.2 mph - N/A   Clear
8:55 PM 71.6 °F - 71.6 °F 100% 30.04 in 10.0 mi NNW 8.1 mph - N/A   Partly Cloudy
9:15 PM 71.6 °F - 71.6 °F 100% 30.03 in 10.0 mi NNW 8.1 mph - N/A   Clear
9:35 PM 71.6 °F - 71.6 °F 100% 30.01 in 9.0 mi Calm Calm - N/A   Clear
9:55 PM 71.6 °F - 71.6 °F 100% 30.01 in 9.0 mi Calm Calm - N/A   Clear
10:15 PM 73.4 °F - 73.4 °F 100% 30.00 in 9.0 mi Calm Calm - N/A   Clear
10:35 PM 71.6 °F - 71.6 °F 100% 30.00 in 9.0 mi SSE 4.6 mph - N/A   Clear
10:55 PM 71.6 °F - - N/A% 30.01 in 8.0 mi Calm Calm - N/A   Clear
11:15 PM 71.6 °F - - N/A% 30.01 in 7.0 mi ESE 3.5 mph - N/A   Clear
11:35 PM 71.6 °F - - N/A% 30.02 in 7.0 mi ESE 3.5 mph - N/A   Clear
11:55 PM 71.6 °F - - N/A% 30.03 in 7.0 mi ENE 6.9 mph - N/A   Clear